Location: Cudham
(51.3000°N, 0.0667°E)
Time: 07:26:33
(UTC+00:00)

Cosmos 2322 Rocket - Pass Details

Date: 19 May 2025
Orbit: 832 x 849 km, 71.0° (Epoch: 18 June)

Event Time Altitude Azimuth Distance (km) Brightness Sun altitude
Rises 21:03:55 0° 329° (NNW) 3,421 7.5 -9.4°
Reaches altitude 10° 21:07:20 10° 349° (N) 2,480 5.7 -9.7°
Maximum altitude 21:10:57 17° 29° (NNE) 2,022 4.5 -10.1°
Drops below altitude 10° 21:14:34 10° 69° (ENE) 2,467 4.5 -10.4°
Sets 21:17:56 0° 89° (E) 3,395 5.0 -10.7°
